YD2CLX-17 Weather Reports


time (UTC)temp
C
wind
direction
speed
KPH
gust
KPH
rain 1hr
cm
rain 24hr
cm
rain mn
cm
humidity
%
barometer
mb
20260505223005 27 88 3.2 3.2 0.00 0.00 0.00 93 1011.0
20260505221504 27 88 3.2 3.2 0.00 0.00 0.00 91 1010.0
20260505220005 27 88 3.2 3.2 0.00 0.00 0.00 93 1010.0
20260505214504 27 88 3.2 3.2 0.00 0.00 0.00 93 1010.0
20260505213005 27 88 3.2 3.2 0.00 0.00 0.00 93 1010.0
20260505211504 27 72 3.2 3.2 0.00 0.00 0.00 92 1010.0
20260505210006 27 72 3.2 3.2 0.00 0.00 0.00 93 1010.0
20260505204505 27 72 3.2 3.2 0.00 0.00 0.00 93 1010.0
20260505203005 27 72 3.2 3.2 0.00 0.00 0.00 93 1010.0
20260505201504 28 71 1.6 1.6 0.00 0.00 0.00 91 1010.0
20260505200006 28 71 1.6 1.6 0.00 0.00 0.00 93 1010.0
20260505194504 28 71 1.6 1.6 0.00 0.00 0.00 91 1010.0
20260505193005 28 71 1.6 1.6 0.00 0.00 0.00 92 1010.0
20260505191504 28 65 1.6 1.6 0.00 0.00 0.00 85 1010.0
20260505190005 27 65 1.6 1.6 0.00 0.00 0.00 90 1010.0
20260505184559 26 65 1.6 1.6 0.00 0.00 0.00 80 1010.0
20260505183100 26 65 1.6 1.6 0.00 0.00 0.00 81 1010.0
20260505181559 28 46 3.2 1.6 0.00 0.00 0.00 91 1011.0
20260505180100 28 46 3.2 1.6 0.00 0.00 0.00 92 1011.0
20260505174600 28 46 3.2 1.6 0.00 0.00 0.00 92 1011.0
20260505173059 28 46 3.2 1.6 0.00 0.00 0.00 92 1011.0
20260505171559 28 37 3.2 1.6 0.00 0.00 0.00 91 1012.0
20260505164600 28 37 3.2 1.6 0.00 0.00 0.00 92 1012.0
20260505163101 28 37 3.2 1.6 0.00 0.00 0.00 92 1012.0
20260505161600 28 41 1.6 0.0 0.00 0.00 0.00 91 1012.0
20260505160106 28 41 1.6 0.0 0.00 0.00 0.00 92 1012.0
20260505153104 28 41 1.6 0.0 0.00 0.00 0.00 92 1012.0
20260505151600 28 24 1.6 0.0 0.00 0.00 0.00 90 1012.0
20260505150109 28 24 1.6 0.0 0.00 0.00 0.00 92 1012.0
20260505140106 28 2 3.2 0.0 0.00 0.00 0.00 92 1012.0
20260505130109 28 352 3.2 1.6 0.00 0.00 0.00 92 1011.0
20260505124602 28 352 3.2 1.6 0.00 0.00 0.00 92 1011.0
20260505123105 29 352 3.2 1.6 0.00 0.00 0.00 92 1011.0
20260505121602 28 1 3.2 0.0 0.00 0.00 0.00 90 1010.0
20260505120112 29 1 3.2 0.0 0.00 0.00 0.00 92 1010.0
20260505114605 29 1 3.2 0.0 0.00 0.00 0.00 92 1010.0
20260505113115 29 350 1.6 1.6 0.00 0.00 0.00 92 1010.0
20260505111606 29 277 1.6 1.6 0.00 0.00 0.00 89 1010.0
20260505110116 29 277 1.6 1.6 0.00 0.00 0.00 89 1010.0
20260505101605 30 207 3.2 4.8 0.00 0.00 0.00 87 1009.0
20260505100113 30 207 3.2 4.8 0.00 0.00 0.00 87 1009.0
20260505094607 30 207 3.2 4.8 0.00 0.00 0.00 87 1009.0
20260505093108 28 220 4.8 3.2 0.00 0.00 0.00 79 1009.0
20260505091605 28 220 4.8 3.2 0.00 0.00 0.00 79 1009.0
20260505090129 28 220 4.8 3.2 0.00 0.00 0.00 79 1009.0
20260505084606 28 220 4.8 3.2 0.00 0.00 0.00 79 1009.0
20260505083110 28 220 4.8 3.2 0.53 0.00 0.00 79 1009.0
20260505081609 28 220 4.8 3.2 0.00 0.00 0.00 79 1009.0
20260505080131 28 220 4.8 3.2 0.03 0.00 0.00 79 1009.0
20260505074608 28 220 4.8 3.2 0.00 0.00 0.00 79 1009.0
20260505073117 28 220 4.8 3.2 0.00 0.00 0.00 79 1009.0
20260505071607 28 220 4.8 3.2 0.00 0.00 0.00 79 1009.0
20260505070129 28 220 4.8 3.2 0.00 0.00 0.00 79 1009.0
20260505064605 28 220 4.8 3.2 0.00 0.00 0.00 79 1009.0
20260505063113 28 220 4.8 3.2 0.00 0.00 0.00 79 1009.0
20260505061608 28 220 4.8 3.2 0.00 0.00 0.00 79 1010.0
20260505060128 28 220 4.8 3.2 0.00 0.00 0.00 79 1010.0
20260505054606 28 220 4.8 3.2 0.00 0.00 0.00 79 1010.0
20260505053109 31 224 4.8 3.2 0.00 0.00 0.00 80 1010.0
20260505051604 31 224 4.8 3.2 0.00 0.00 0.00 80 1010.0
20260505050117 31 224 4.8 3.2 0.00 0.00 0.00 80 1010.0
20260505041555 31 233 3.2 3.2 0.00 0.00 0.00 82 1011.0
20260505040057 31 233 3.2 3.2 0.00 0.00 0.00 80 1011.0
20260505034555 31 233 3.2 3.2 0.00 0.00 0.00 81 1011.0
20260505033056 31 233 3.2 3.2 0.10 0.00 0.00 80 1011.0
20260505031555 31 238 3.2 1.6 0.00 0.00 0.00 83 1012.0
20260505030100 31 238 3.2 1.6 0.00 0.00 0.00 81 1012.0
20260505024555 30 238 3.2 1.6 0.00 0.00 0.00 82 1012.0
20260505023056 31 233 1.6 3.2 0.00 0.00 0.00 82 1012.0
20260505021555 30 233 1.6 3.2 0.05 0.00 0.00 83 1012.0
20260505020059 30 233 1.6 3.2 0.00 0.00 0.00 82 1012.0
20260505014554 30 233 1.6 3.2 0.00 0.00 0.00 83 1012.0
20260505013055 30 206 1.6 3.2 0.00 0.00 0.00 85 1012.0
20260505011554 30 219 1.6 3.2 0.00 0.00 0.00 85 1011.0
20260505010057 29 206 1.6 3.2 0.00 0.00 0.00 85 1012.0
20260505004555 29 219 1.6 3.2 0.00 0.00 0.00 87 1011.0
20260505003055 29 219 1.6 3.2 0.00 0.00 0.00 85 1012.0
20260505001555 28 77 1.6 3.2 0.00 0.00 0.00 89 1011.0
20260505000057 28 77 1.6 3.2 0.00 0.00 0.00 89 1011.0
20260504234554 28 76 1.6 3.2 0.00 0.00 0.00 89 1011.0
20260504233055 28 76 1.6 3.2 0.00 0.00 0.00 90 1011.0
20260504231554 28 49 4.8 3.2 0.00 0.00 0.00 90 1010.0
20260504230056 28 49 4.8 3.2 0.00 0.00 0.00 91 1010.0
20260504224555 28 49 4.8 3.2 0.00 0.00 0.00 91 1010.0